• In Uzbekistan
  • List of Countries
  • For 7 days
  • Water Temperature
  • Satellite Maps
  • Weather Map
  • Weather Widgets
  • user-avatar
    Login

    Hourly Weather La Trinitaria

    Today, 21 February, Wednesday

    Time Temperature Precipitation Wind Pressure Humidity
    00:00 +15°C° 0 mm 1 mps 634 mmHg 83%
    01:00 +14°C° 0 mm 1 mps 634 mmHg 84%
    02:00 +14°C° 0 mm 1 mps 634 mmHg 84%
    03:00 +14°C° 0 mm 1 mps 634 mmHg 85%
    04:00 +14°C° 0 mm 1 mps 634 mmHg 85%
    05:00 +14°C° 0 mm 1 mps 634 mmHg 85%
    06:00 +13°C° 0 mm 1 mps 634 mmHg 86%
    07:00 +16°C° 0 mm 1 mps 635 mmHg 78%
    08:00 +19°C° 0 mm 1 mps 636 mmHg 70%
    09:00 +21°C° 0 mm 1 mps 637 mmHg 62%
    10:00 +23°C° 0 mm 1 mps 637 mmHg 55%
    11:00 +25°C° 0 mm 1 mps 638 mmHg 48%
    12:00 +27°C° 0 mm 1 mps 638 mmHg 40%
    13:00 +27°C° 0.1 mm 2 mps 638 mmHg 41%
    14:00 +27°C° 0.1 mm 2 mps 637 mmHg 42%
    15:00 +26°C° 0.1 mm 2 mps 636 mmHg 43%
    16:00 +25°C° 0.1 mm 2 mps 636 mmHg 48%
    17:00 +23°C° 0.1 mm 2 mps 635 mmHg 54%
    18:00 +20°C° 0.1 mm 2 mps 635 mmHg 59%
    19:00 +19°C° 0.1 mm 2 mps 635 mmHg 65%
    20:00 +17°C° 0.1 mm 2 mps 635 mmHg 71%
    21:00 +16°C° 0.1 mm 2 mps 635 mmHg 77%
    22:00 +16°C° 0 mm 1 mps 635 mmHg 79%
    23:00 +15°C° 0 mm 1 mps 635 mmHg 81%

    Tomorrow, 22 February, Thursday

    Time Temperature Precipitation Wind Pressure Humidity
    00:00 +15°C° 0 mm 1 mps 636 mmHg 83%
    01:00 +14°C° 0 mm 1 mps 635 mmHg 84%
    02:00 +14°C° 0 mm 1 mps 635 mmHg 85%
    03:00 +14°C° 0 mm 1 mps 634 mmHg 86%
    04:00 +13°C° 0 mm 1 mps 634 mmHg 85%
    05:00 +13°C° 0 mm 1 mps 634 mmHg 85%
    06:00 +13°C° 0 mm 1 mps 634 mmHg 85%
    07:00 +15°C° 0 mm 1 mps 635 mmHg 76%
    08:00 +18°C° 0 mm 1 mps 636 mmHg 67%
    09:00 +21°C° 0 mm 1 mps 637 mmHg 58%
    10:00 +23°C° 0 mm 2 mps 638 mmHg 52%
    11:00 +25°C° 0 mm 2 mps 638 mmHg 45%
    12:00 +27°C° 0 mm 2 mps 639 mmHg 38%
    13:00 +27°C° 0 mm 2 mps 638 mmHg 39%
    14:00 +27°C° 0 mm 3 mps 637 mmHg 40%
    15:00 +27°C° 0 mm 3 mps 637 mmHg 40%
    16:00 +25°C° 0 mm 3 mps 636 mmHg 44%
    17:00 +22°C° 0 mm 3 mps 636 mmHg 48%
    18:00 +20°C° 0 mm 3 mps 635 mmHg 52%
    19:00 +18°C° 0 mm 3 mps 635 mmHg 59%
    20:00 +17°C° 0 mm 2 mps 635 mmHg 66%
    21:00 +15°C° 0 mm 2 mps 635 mmHg 72%
    22:00 +15°C° 0 mm 2 mps 635 mmHg 74%
    23:00 +14°C° 0 mm 1 mps 635 mmHg 76%

    Day after tomorrow, 23 February, Friday

    Time Temperature Precipitation Wind Pressure Humidity
    00:00 +14°C° 0 mm 1 mps 635 mmHg 77%
    01:00 +14°C° 0 mm 1 mps 635 mmHg 79%
    02:00 +13°C° 0 mm 1 mps 635 mmHg 80%
    03:00 +13°C° 0 mm 1 mps 634 mmHg 81%
    04:00 +13°C° 0 mm 1 mps 634 mmHg 81%
    05:00 +13°C° 0 mm 1 mps 634 mmHg 82%
    06:00 +12°C° 0 mm 1 mps 634 mmHg 82%
    07:00 +15°C° 0 mm 1 mps 635 mmHg 73%
    08:00 +18°C° 0 mm 1 mps 636 mmHg 64%
    09:00 +21°C° 0 mm 1 mps 638 mmHg 55%
    10:00 +23°C° 0 mm 2 mps 638 mmHg 49%
    11:00 +25°C° 0 mm 2 mps 638 mmHg 43%
    12:00 +27°C° 0 mm 2 mps 638 mmHg 36%
    13:00 +27°C° 0 mm 3 mps 638 mmHg 36%
    14:00 +27°C° 0 mm 3 mps 637 mmHg 35%
    15:00 +27°C° 0 mm 3 mps 636 mmHg 34%
    16:00 +25°C° 0 mm 3 mps 636 mmHg 40%
    17:00 +22°C° 0 mm 3 mps 635 mmHg 46%
    18:00 +20°C° 0 mm 3 mps 635 mmHg 52%
    19:00 +19°C° 0 mm 3 mps 635 mmHg 60%
    20:00 +17°C° 0 mm 2 mps 635 mmHg 67%
    21:00 +16°C° 0 mm 2 mps 635 mmHg 75%
    22:00 +15°C° 0 mm 2 mps 635 mmHg 77%
    23:00 +14°C° 0 mm 1 mps 634 mmHg 78%

    24 February, Saturday

    Time Temperature Precipitation Wind Pressure Humidity
    00:00 +14°C° 0 mm 1 mps 634 mmHg 79%
    01:00 +14°C° 0 mm 1 mps 634 mmHg 80%
    02:00 +13°C° 0 mm 1 mps 633 mmHg 81%
    03:00 +13°C° 0 mm 1 mps 633 mmHg 82%
    04:00 +13°C° 0 mm 1 mps 633 mmHg 81%
    05:00 +13°C° 0 mm 1 mps 633 mmHg 81%
    06:00 +12°C° 0 mm 1 mps 633 mmHg 81%
    07:00 +15°C° 0 mm 1 mps 634 mmHg 71%
    08:00 +19°C° 0 mm 1 mps 635 mmHg 61%
    09:00 +22°C° 0 mm 1 mps 637 mmHg 50%
    10:00 +24°C° 0 mm 1 mps 637 mmHg 45%
    11:00 +26°C° 0 mm 1 mps 637 mmHg 39%
    12:00 +28°C° 0 mm 1 mps 637 mmHg 33%
    13:00 +28°C° 0 mm 2 mps 636 mmHg 33%
    14:00 +28°C° 0 mm 2 mps 636 mmHg 34%
    15:00 +28°C° 0 mm 2 mps 635 mmHg 34%
    16:00 +26°C° 0.1 mm 2 mps 635 mmHg 42%
    17:00 +24°C° 0.1 mm 1 mps 634 mmHg 49%
    18:00 +22°C° 0.1 mm 1 mps 634 mmHg 56%
    19:00 +21°C° 0.1 mm 1 mps 634 mmHg 63%
    20:00 +19°C° 0.1 mm 1 mps 634 mmHg 69%
    21:00 +18°C° 0.1 mm 1 mps 634 mmHg 76%
    22:00 +16°C° 0 mm 1 mps 634 mmHg 77%
    23:00 +16°C° 0 mm 1 mps 634 mmHg 79%

    25 February, Sunday

    Time Temperature Precipitation Wind Pressure Humidity
    00:00 +15°C° 0 mm 1 mps 633 mmHg 80%
    01:00 +15°C° 0 mm 1 mps 633 mmHg 81%
    02:00 +15°C° 0 mm 1 mps 633 mmHg 82%
    03:00 +15°C° 0 mm 1 mps 632 mmHg 82%
    04:00 +14°C° 0 mm 1 mps 633 mmHg 82%
    05:00 +14°C° 0 mm 1 mps 633 mmHg 82%
    06:00 +14°C° 0 mm 1 mps 633 mmHg 82%
    07:00 +16°C° 0 mm 1 mps 634 mmHg 72%
    08:00 +18°C° 0 mm 0 mps 635 mmHg 62%
    09:00 +21°C° 0 mm 0 mps 637 mmHg 52%
    10:00 +24°C° 0 mm 1 mps 637 mmHg 46%
    11:00 +26°C° 0 mm 1 mps 637 mmHg 40%
    12:00 +28°C° 0 mm 2 mps 637 mmHg 34%
    13:00 +28°C° 0 mm 2 mps 636 mmHg 34%
    14:00 +28°C° 0 mm 2 mps 636 mmHg 33%
    15:00 +28°C° 0 mm 2 mps 635 mmHg 33%
    16:00 +26°C° 0 mm 2 mps 635 mmHg 38%
    17:00 +24°C° 0 mm 1 mps 635 mmHg 43%
    18:00 +23°C° 0 mm 1 mps 634 mmHg 48%
    19:00 +21°C° 0 mm 1 mps 634 mmHg 54%
    20:00 +20°C° 0 mm 1 mps 634 mmHg 60%
    21:00 +18°C° 0 mm 1 mps 635 mmHg 65%
    22:00 +16°C° 0 mm 1 mps 634 mmHg 68%
    23:00 +16°C° 0 mm 1 mps 634 mmHg 70%

    26 February, Monday

    Time Temperature Precipitation Wind Pressure Humidity
    00:00 +15°C° 0 mm 1 mps 634 mmHg 73%
    01:00 +15°C° 0 mm 1 mps 634 mmHg 75%
    02:00 +14°C° 0 mm 1 mps 633 mmHg 77%
    03:00 +14°C° 0 mm 1 mps 633 mmHg 78%
    04:00 +14°C° 0 mm 1 mps 633 mmHg 79%
    05:00 +13°C° 0 mm 1 mps 633 mmHg 80%
    06:00 +13°C° 0 mm 1 mps 633 mmHg 80%
    07:00 +16°C° 0 mm 1 mps 634 mmHg 68%
    08:00 +20°C° 0 mm 1 mps 636 mmHg 56%
    09:00 +23°C° 0 mm 1 mps 637 mmHg 44%
    10:00 +25°C° 0 mm 1 mps 637 mmHg 37%
    11:00 +27°C° 0 mm 1 mps 637 mmHg 29%
    12:00 +30°C° 0 mm 1 mps 638 mmHg 22%
    13:00 +30°C° 0 mm 1 mps 637 mmHg 21%
    14:00 +30°C° 0 mm 2 mps 637 mmHg 20%
    15:00 +29°C° 0 mm 2 mps 636 mmHg 19%
    16:00 +27°C° 0 mm 2 mps 635 mmHg 26%
    17:00 +25°C° 0 mm 2 mps 635 mmHg 32%
    18:00 +23°C° 0 mm 2 mps 634 mmHg 39%
    19:00 +20°C° 0 mm 2 mps 634 mmHg 47%
    20:00 +18°C° 0 mm 2 mps 634 mmHg 54%
    21:00 +16°C° 0 mm 1 mps 634 mmHg 62%
    22:00 +15°C° 0 mm 1 mps 634 mmHg 65%
    23:00 +15°C° 0 mm 1 mps 634 mmHg 67%
    Show more